LFSTLFJL

Guest
Details From LFST - Entzheim
To LFJL - Metz-Nancy-Lorraine
Flight Number -
Tags generated
Created
Modified
Stats Distance 61 nm / 113 km
Max Altitude 7,600 ft / 2,316 m
Waypoints 3
Social Downloads 0
Likes 0
Share VATSIM

Download

Looking for another format? Having issues loading an existing format? Contact us
Advertisement - Login to hide

Notes

Basic altitude profile: - Ascent Rate: 2500ft/min - Ascent Speed: 250kts - Cruise Altitude: 35000ft - Cruise Speed: 420kts - Descent Rate: 1500ft/min - Descent Speed: 250kts Options: - Use NATs: yes - Use PACOTS: yes - Use low airways: yes - Use high airways: yes

Route

LFST PHALO LFJL

ID Type Via Altitude (ft/m) Position (lat/lon) Dist (leg/tot) Name
O LFST APT - 0 / 0 48.53833 / 7.62826 - / 0 nm Entzheim
PHALO FIX - 7,600 / 2,316 48.77778 / 7.09528 25 / 25 nm
O LFJL APT - 0 / 0 48.98065 / 6.24947 35 / 61 nm Metz-Nancy-Lorraine

Altitude Profile

Advertisement - Login to hide

LFST

Details ICAO LFST (SXB)
Name Entzheim
Region France
Timezone Europe/Paris (UTC+1.0)
Stats Elevation 504 ft / 154 m (AMSL)
Location 48.538300° 7.628260°
Runways 1
Magnetic Variation 2.265° E

METAR

LFST 242100Z AUTO 31007KT 7000 BKN036 10/05 Q1024 TEMPO 4000 -SHRA

Decode

TAF

TAF LFST 241700Z 2418/2518 33008KT 8000 NSC TEMPO 2421/2503 4000 -SHRA BKN030 BECMG 2507/2509 31010G20KT SCT035 TEMPO 2512/2517 31015G30KT 4000 SHRA SCT040TCU

Decode

Departure Runways

ID Width Length Bearing (true/mag) Surface Threshold Overrun Markings Lighting
05 148 ft / 45 m 7,899 ft / 2,408 m 48.60° / 46.34° ASPHALT 0 ft / 0 m 860 ft / 262 m UK-PREC-APP CENTERLINE EDGE THRESHOLD REIL-OMNI
23 148 ft / 45 m 7,899 ft / 2,408 m 228.62° / 226.36° ASPHALT 0 ft / 0 m 902 ft / 275 m UK-PREC-APP CENTERLINE EDGE THRESHOLD CALVERT-ILS TDZ REIL-OMNI

LFJL

Details ICAO LFJL (ETZ)
Name Metz-Nancy-Lorraine
Region France
Timezone Europe/Paris (UTC+1.0)
Stats Elevation 870 ft / 265 m (AMSL)
Location 48.980600° 6.249470°
Runways 1
Magnetic Variation 1.883° E

METAR

LFJL 242100Z AUTO 33004KT CAVOK 08/03 Q1025 NOSIG

Decode

TAF

TAF LFJL 241700Z 2418/2518 33008KT 8000 NSC PROB30 TEMPO 2501/2507 VRB03KT 4000 BR BECMG 2508/2510 30010G20KT 9999 TEMPO 2512/2517 31015G30KT BKN030 PROB30 TEMPO 2514/2516 35020G40KT 4000 SHRA SCT030TCU

Decode

Destination Runways

ID Width Length Bearing (true/mag) Surface Threshold Overrun Markings Lighting
04 148 ft / 45 m 10,016 ft / 3,053 m 39.13° / 37.25° ASPHALT 656 ft / 200 m 0 ft / 0 m PREC-APP CENTERLINE EDGE THRESHOLD REIL-OMNI
22 148 ft / 45 m 10,016 ft / 3,053 m 219.15° / 217.27° ASPHALT 0 ft / 0 m 0 ft / 0 m PREC-APP CENTERLINE EDGE THRESHOLD ALSF-II TDZ REIL-OMNI

Approach Navaids

Runway Type Ident Frequency Range Bearing (true/mag) Slope Elevation
22 DME MLY 111.75 MHz 18 nm / 33 km - - 919 ft / 280 m (AMSL)
22 LOC-ILS MLY 111.75 MHz 18 nm / 33 km 219.20° / 217.32 ° - 870 ft / 265 m (AMSL)
22 GS MLY 111.75 MHz 10 nm / 19 km 219.28° / 217.40 ° 3.00° 870 ft / 265 m (AMSL)

Popular Alternatives